Regional Weather Roundup
Issued by NWS

Home | Current Version | Previous Version | Graphics & Text | Print | Product List | Glossary On
Versions: 1 2 3 4 5 6 7 8 9 10 11 12 13 14 15 16 17 18 19 20 21 22 23 24 25 26 27 28 29 30 31 32 33 34 35 36 37 38 39 40 41 42 43 44 45 46 47 48 49 50
000
ASUS43 KBIS 251010
RWRND

NORTH DAKOTA REGIONAL WEATHER ROUNDUP
NATIONAL WEATHER SERVICE BISMARCK ND
500 AM CDT TUE JUL 25 2017

NOTE: "FAIR" INDICATES FEW OR NO CLOUDS BELOW 12,000 FEET WITH NO
SIGNIFICANT WEATHER AND/OR OBSTRUCTIONS TO VISIBILITY.


NDZ001>003-009>011-017-251100-
NORTHWEST NORTH DAKOTA

CITY           SKY/WX    TMP DP  RH WIND       PRES   REMARKS
WILLISTON      CLOUDY    64  52  64 N6        29.95R
MINOT          CLOUDY    64  54  69 W8        29.90R
MINOT AFB      MOCLDY    61  52  71 NW8       29.89R
$$

NDZ018>021-031>035-040>046-251100-
SOUTHWEST NORTH DAKOTA

CITY           SKY/WX    TMP DP  RH WIND       PRES   REMARKS
BISMARCK       PTCLDY    69  66  90 NE6       29.85R
DICKINSON      CLOUDY    67  53  61 N7        29.92R
GARRISON         N/A     63  57  81 N14       29.88R
HETTINGER ARPT CLOUDY    69  64  84 N7        29.92R
$$

NDZ004>008-012>016-024-026-027-054-251100-
NORTHEAST NORTH DAKOTA

CITY           SKY/WX    TMP DP  RH WIND       PRES   REMARKS
GRAND FORKS    CLOUDY    67  65  93 S10       29.83F
GRND FRKS AFB  CLOUDY    65  64  96 NW6       29.86R
DEVILS LAKE    CLOUDY    68  65  90 S9        29.86S
$$

NDZ022-023-025-028>030-036>039-047>053-251100-
SOUTHEAST NORTH DAKOTA

CITY           SKY/WX    TMP DP  RH WIND       PRES   REMARKS
FARGO          CLEAR     68  64  87 SE12      29.85F
JAMESTOWN      PTCLDY    66  64  93 CALM      29.84S
$$




USA.gov is the U.S. government's official web portal to all federal, state and local government web resources and services.